User: anonymous   Login
Location: NJAA Observatory
(40.6819°N, 74.8979°W)
Time: 18:03:52
(UTC-05:00)
Language:

Meteor 1-28 Rocket - Orbit

View from above orbital plane
View from above orbital plane
View from above satellite
View from above satellite

Ground track
Ground track

The orbit data is extracted from the following two-line orbital elements,

1 10114U 77057B   14331.15208393  .00004501  00000-0  24983-3 0  4068
2 10114 097.2480 183.8093 0014350 341.8778 018.1941 15.14137917 42214
Epoch (UTC): 27 November 2014 03:39:00
Eccentricity: 0.0014350
inclination: 97.2480°
perigee height: 513 km
apogee height: 533 km
right ascension of ascending node: 183.8093°
argument of perigee: 341.8778°
revolutions per day: 15.14137917
mean anomaly at epoch: 18.1941°
orbit number at epoch: 4221

The dashed part of the orbit path shows where the satellite is in the earth's shadow,  

DLR